Regional Weather Roundup
Issued by NWS Cleveland, OH

Home | Current Version | Previous Version | Text Only | Print | Product List | Glossary Off
Versions: 1 2 3 4 5 6 7 8 9 10 11 12 13 14 15 16 17 18 19 20 21 22 23 24 25 26 27 28 29 30 31 32 33 34 35 36 37 38 39 40 41 42 43 44 45 46 47 48 49 50

752
ASUS41 KCLE 261210
RWRCLE
OHIO REGIONAL WEATHER ROUNDUP
NATIONAL WEATHER SERVICE CLEVELAND, OH
800 AM EDT MON JUN 26 2017

NOTE: "FAIR" INDICATES FEW OR NO CLOUDS BELOW 12,000 FEET WITH NO
SIGNIFICANT WEATHER AND/OR OBSTRUCTIONS TO VISIBILITY.

OHZ001>008-015>018-024>027-034-035-043-044-261300-
   NORTHWEST OHIO

CITY           SKY/WX    TMP DP  RH WIND       PRES   REMARKS
DEFIANCE       SUNNY     58  51  78 VRB7      30.09S
FINDLAY        SUNNY     60  51  72 W10       30.08S
TOLEDO EXPRESS SUNNY     60  53  77 W10       30.08R
TOLEDO EXEC    SUNNY     61  53  75 W10       30.08R
LIMA           SUNNY     58  52  80 SW8       30.11R
$$

OHZ009>014-019>023-028>033-038-089-261300-
   NORTHEAST OHIO

CITY           SKY/WX    TMP DP  RH WIND       PRES   REMARKS
CLE-HOPKINS    MOSUNNY   61  50  67 SW7       30.07S
CLE-LAKEFRONT  PTSUNNY   64  48  56 SW10      30.04S
CUY CO. ARPT   PTSUNNY   63  50  63 SW9       30.05R
LORAIN-ELYRIA  MOSUNNY   59  47  64 W9        30.07R
ASHTABULA      CLOUDY    57  53  86 S6        30.06S
AKRON-CANTON   SUNNY     60  47  61 SW7       30.08R
WOOSTER        SUNNY     59  49  69 W9        30.09R
MANSFIELD      SUNNY     58  50  75 W9        30.09R
YOUNGSTOWN     MOSUNNY   57  49  74 SW6       30.06S
$$

OHZ042-051>053-060>062-070>072-077>081-261300-
  SOUTHWEST OHIO

CITY           SKY/WX    TMP DP  RH WIND       PRES   REMARKS
CINC-COVINGTON SUNNY     60  51  72 W6        30.16R
CINC-LUNKEN    SUNNY     63  51  65 CALM      30.16S
HAMILTON       SUNNY     60  55  83 W3        30.16S
DAYTON         SUNNY     59  50  72 W12       30.14S
WRIGHT-PAT AFB MOSUNNY   60  52  74 W8        30.13S
DAYTON GENERAL SUNNY     59  50  72 W6        30.14R
WILMINGTON     SUNNY     60  52  74 W9        30.14R
$$

OHZ036-037-039>041-045>050-054>059-063>069-073>076-082>088-261300-
  CENTRAL AND SOUTHEAST OHIO

CITY           SKY/WX    TMP DP  RH WIND       PRES   REMARKS
COLUMBUS       MOSUNNY   61  51  70 W9        30.11R
OSU AIRPORT    SUNNY     59  52  77 W8        30.11S
BOLTON FIELD   SUNNY     59  52  77 W3        30.12
RICKENBACK AFB SUNNY     59  52  79 W7        30.11S
NEWARK         SUNNY     60  53  77 SW3       30.10S
MARION         SUNNY     59  50  72 W9        30.11R
LANCASTER      SUNNY     60  52  74 VRB5      30.12R
ZANESVILLE     PTSUNNY   56  52  86 CALM      30.11R
NEW PHILLY     NOT AVBL
$$




USA.gov is the U.S. government's official web portal to all federal, state and local government web resources and services.